This demonstration page uses our WeatherBlox Daily Observations layout. Learn more.

Left ArrowRight Arrow

Hourly Observations for August 16, 2022

Temp ( °F °C ) Dew Point ( °F °C ) Humidity (%) Winds ( mph kmh ) Pressure ( in mb ) Visibility ( mi km ) Precip ( " mm )
12:52 am 00:52 Cloudy 65 18.3 61 16.1 87 87 SSE 10 17 30.06 1018 10 16 0.00 0.00
1:30 am 01:30 Cloudy 65 18.3 60 15.6 84 84 ESE 9 15 30.04 1017 10 16 0.00 0.00
1:52 am 01:52 Cloudy 64 17.8 60 15.6 87 87 SE 10 17 30.05 1018 10 16 0.00 0.00
2:03 am 02:03 Cloudy 64 17.8 60 15.6 87 87 ESE 13 20 30.04 1017 10 16 0.00 0.00
2:52 am 02:52 Cloudy with Heavy Rain 63 17.2 62 16.7 97 97 ESE 5 7 30.06 1018 6 10 0.05 1.27
3:21 am 03:21 Cloudy with Rain 63 17.2 61 16.1 93 93 ESE 10 17 30.05 1018 8 13 0.14 3.56
3:56 am 03:56 Cloudy with Heavy Rain 62 16.7 61 16.1 96 96 E 9 15 30.06 1018 3 4 0.02 0.51
4:08 am 04:08 Cloudy with Heavy Rain 62 16.7 61 16.1 96 96 ESE 6 9 30.07 1018 5 8 0.13 3.30
4:17 am 04:17 Cloudy with Light Rain 62 16.7 61 16.1 96 96 ESE 5 7 30.07 1018 6 10 0.15 3.81
4:34 am 04:34 Cloudy with Light Rain 62 16.7 62 16.7 100 100 Calm 30.07 1018 6 10 0.17 4.32
4:52 am 04:52 Cloudy with Light Rain 63 17.2 62 16.7 97 97 SSE 3 6 30.08 1019 6 10 0.18 4.57
5:52 am 05:52 Cloudy with Light Rain 63 17.2 62 16.7 97 97 ENE 7 11 30.06 1018 5 8 0.03 0.76
6:18 am 06:18 Cloudy with Rain 63 17.2 62 16.7 97 97 ESE 7 11 30.07 1018 3 4 0.03 0.76
6:27 am 06:27 Cloudy with Rain 63 17.2 62 16.7 97 97 E 3 6 30.07 1018 3 4 0.05 1.27
6:37 am 06:37 Cloudy with Light Rain 63 17.2 62 16.7 97 97 ENE 5 7 30.07 1018 3 5 0.07 1.78
6:52 am 06:52 Cloudy with Light Rain 63 17.2 62 16.7 97 97 NE 3 6 30.07 1018 5 8 0.07 1.78
7:52 am 07:52 Cloudy 64 17.8 62 16.7 93 93 E 7 11 30.08 1019 10 16 0.01 0.25
8:52 am 08:52 Cloudy 65 18.3 63 17.2 93 93 NE 7 11 30.09 1019 10 16 0.00 0.00
9:14 am 09:14 Cloudy 65 18.3 63 17.2 93 93 ENE 6 9 30.09 1019 10 16 0.00 0.00
9:52 am 09:52 Mostly Cloudy 67 19.4 63 17.2 87 87 E 7 11 30.10 1019 10 16 0.00 0.00
10:52 am 10:52 Cloudy 69 20.6 63 17.2 81 81 ENE 9 15 30.11 1020 10 16 0.00 0.00
11:52 am 11:52 Cloudy 71 21.7 63 17.2 76 76 E 9 15 30.10 1019 10 16 0.00 0.00
12:01 pm 12:01 Cloudy 71 21.7 63 17.2 76 76 E 12 19 30.08 1018 10 16 0.00 0.00
12:52 pm 12:52 Mostly Cloudy 73 22.8 63 17.2 71 71 ESE 10 17 30.09 1019 10 16 0.00 0.00
1:52 pm 13:52 Mostly Cloudy 76 24.4 62 16.7 62 62 E 9 15 30.07 1018 10 16 0.00 0.00
2:52 pm 14:52 Mostly Cloudy 77 25 62 16.7 60 60 E 13 20 30.07 1018 10 16 0.00 0.00
3:52 pm 15:52 Mostly Cloudy 77 25 61 16.1 58 58 ESE 10 17 30.07 1018 10 16 0.00 0.00
4:52 pm 16:52 Mostly Cloudy 77 25 62 16.7 60 60 E 9 15 30.07 1018 10 16 0.00 0.00
5:52 pm 17:52 Mostly Cloudy 78 25.6 61 16.1 56 56 SE 8 13 30.07 1018 10 16 0.00 0.00
6:52 pm 18:52 Partly Cloudy 77 25 62 16.7 60 60 E 7 11 30.07 1018 10 16 0.00 0.00
7:52 pm 19:52 Partly Cloudy 77 25 63 17.2 62 62 Calm 30.07 1018 10 16 0.00 0.00
8:52 pm 20:52 Partly Cloudy 72 22.2 62 16.7 71 71 NE 7 11 30.08 1019 10 16 0.00 0.00
9:52 pm 21:52 Partly Cloudy 67 19.4 63 17.2 87 87 Calm 30.09 1019 10 16 0.00 0.00
10:52 pm 22:52 Partly Cloudy 65 18.3 63 17.2 93 93 NW 6 9 30.11 1020 10 16 0.00 0.00
11:52 pm 23:52 Mostly Clear 66 18.9 64 17.8 93 93 W 3 6 30.11 1020 10 16 0.00 0.00

Powered by AerisWeather